Regional Weather Roundup
Issued by NWS Cleveland, OH

Home | Current Version | Previous Version | Graphics & Text | Print | Product List | Glossary On
Versions: 1 2 3 4 5 6 7 8 9 10 11 12 13 14 15 16 17 18 19 20 21 22 23 24 25 26 27 28 29 30 31 32 33 34 35 36 37 38 39 40 41 42 43 44 45 46 47 48 49 50
712
ASUS41 KCLE 230810
RWRCLE
OHIO REGIONAL WEATHER ROUNDUP
NATIONAL WEATHER SERVICE CLEVELAND, OH
400 AM EDT MON APR 23 2018

NOTE: "FAIR" INDICATES FEW OR NO CLOUDS BELOW 12,000 FEET WITH NO
SIGNIFICANT WEATHER AND/OR OBSTRUCTIONS TO VISIBILITY.

OHZ001>008-015>018-024>027-034-035-043-044-230900-
   NORTHWEST OHIO

CITY           SKY/WX    TMP DP  RH WIND       PRES   REMARKS
DEFIANCE       FAIR      42  29  59 NE6       30.21F
FINDLAY        FAIR      45  26  47 NE9       30.19S
TOLEDO EXPRESS FAIR      44  31  60 NE9       30.22F
TOLEDO EXEC    FAIR      44  33  65 NE8       30.24F
LIMA           FAIR      42  29  59 NE9       30.17F
$$

OHZ009>014-019>023-028>033-038-089-230900-
   NORTHEAST OHIO

CITY           SKY/WX    TMP DP  RH WIND       PRES   REMARKS
CLE-HOPKINS    FAIR      51  29  42 E9        30.26S
CLE-LAKEFRONT  FAIR      54  30  40 SE8       30.24S
CUY CO. ARPT   NOT AVBL
LORAIN-ELYRIA  FAIR      39  24  55 NE10      30.23S
ASHTABULA      FAIR      45  23  42 SE6       30.30S
AKRON-CANTON   FAIR      49  31  49 E9        30.24S
WOOSTER        FAIR      45  31  58 E9        30.23S
MANSFIELD      FAIR      46  28  49 E10       30.20F
YOUNGSTOWN     FAIR      47  31  53 E9        30.27S
$$

OHZ042-051>053-060>062-070>072-077>081-230900-
  SOUTHWEST OHIO

CITY           SKY/WX    TMP DP  RH WIND       PRES   REMARKS
CINC-COVINGTON CLOUDY    56  31  38 E12       30.07F
CINC-LUNKEN    FAIR      48  40  73 NE5       30.10F
HAMILTON       FAIR      47  35  63 E7        30.11S
DAYTON         MOCLDY    50  32  50 E10       30.14F
WRIGHT-PAT AFB FAIR      49  31  50 CALM      30.13S
DAYTON GENERAL FAIR      53  31  42 NE12      30.10F
WILMINGTON     FAIR      49  35  58 NE9       30.12S
$$

OHZ036-037-039>041-045>050-054>059-063>069-073>076-082>088-230900-
  CENTRAL AND SOUTHEAST OHIO

CITY           SKY/WX    TMP DP  RH WIND       PRES   REMARKS
COLUMBUS       MOCLDY    55  32  41 E9        30.16S
OSU AIRPORT    FAIR      48  32  53 E7        30.15F
BOLTON FIELD   FAIR      52  33  47 E5        30.16S
RICKENBACK AFB FAIR      50  33  53 E9        30.15S
NEWARK         FAIR      49  32  52 NE5       30.18S
MARION         FAIR      40  30  67 E6        30.18F
LANCASTER      FAIR      49  35  58 E6        30.17S
ZANESVILLE     FAIR      50  35  56 E5        30.19S
NEW PHILLY     FAIR      50  37  61 SE6       30.23
$$




USA.gov is the U.S. government's official web portal to all federal, state and local government web resources and services.